Regional Weather Roundup
Issued by NWS

Home | Current Version | Previous Version | Text Only | Print | Product List | Glossary On
Versions: 1 2 3 4 5 6 7 8 9 10 11 12 13 14 15 16 17 18 19 20 21 22 23 24 25 26 27 28 29 30 31 32 33 34 35 36 37 38 39 40 41 42 43 44 45 46 47 48 49 50
000
ASUS43 KIND 291310
RWRIN

WEATHER ROUNDUP FOR INDIANA
NATIONAL WEATHER SERVICE INDIANAPOLIS IN
800 AM EST THU JAN 29 2015

NOTE: "FAIR" INDICATES FEW OR NO CLOUDS BELOW 12,000 FEET WITH NO
SIGNIFICANT WEATHER AND/OR OBSTRUCTIONS TO VISIBILITY.

* - STATION DOES NOT REPORT WEATHER SUCH AS PRECIPITATION OR FOG.

+ - STATION NOT QUALITY CONTROLLED BY THE NATIONAL WEATHER SERVICE.
    USE DATA WITH CAUTION...ESPECIALLY DEWPOINT AND RELATIVE
    HUMIDITY OBSERVATIONS.

INZ001>003-010>013-019-020-291400-
NORTHWEST INDIANA

CITY           SKY/WX    TMP DP  RH WIND       PRES   REMARKS
GARY /AIRPORT/ CLOUDY    37  27  65 W6        29.72R
KNOX *+        MOCLDY    34  16  48 S9        29.70S WCI  27
VALPARAISO     CLOUDY    33  26  75 CALM      29.71R

$$

LMZ046-743>745-291400-
SOUTHERN LAKE MICHIGAN

STATION/POSITION TIME  TEMP WIND        PRES
                       AIR  DIR/SP/G
                 (UTC) (F)  (DEG/KT/KT) (MB)
MICHIGAN CITY    1300   37  150/ 12/ 15   N/A

$$

INZ004-005-014>016-021>024-291400-
NORTH CENTRAL INDIANA

CITY           SKY/WX    TMP DP  RH WIND       PRES   REMARKS
ELKHART        CLOUDY    36  23  60 S3        29.73R
GOSHEN         CLOUDY    36  27  69 S10       29.71S
PERU/GRISSOM   MOCLDY    38  30  73 S16       29.72S
ROCHESTER +    PTCLDY    37  30  75 S9        29.72S
SOUTH BEND     CLOUDY    37  26  64 SW5       29.72R
WARSAW +       PTCLDY    34  27  75 S5        29.72S WCI  30

$$

INZ006>009-017-018-025>027-291400-
NORTHEAST INDIANA

CITY           SKY/WX    TMP DP  RH WIND       PRES   REMARKS
AUBURN +       CLOUDY    32  27  80 CALM      29.74F
FORT WAYNE     MOCLDY    36  28  73 S12       29.75F

$$

INZ028-029-035-036-043>045-051>053-291400-
WEST CENTRAL INDIANA

CITY           SKY/WX    TMP DP  RH WIND       PRES   REMARKS
GREENCASTLE +  MOCLDY    43  30  61 SW8       29.77S
LAFAYETTE      PTCLDY    40  31  70 S7        29.72F
TERRE HAUTE    CLOUDY    42  33  70 SW9       29.79R

$$

INZ030>032-037>040-046>048-054>057-064-065-291400-
CENTRAL INDIANA

CITY           SKY/WX    TMP DP  RH WIND       PRES   REMARKS
COLUMBUS       PTCLDY    36  28  75 S12       29.83F
INDIANAPOLIS   MOCLDY    38  30  73 S12       29.77F
-EAGLE CREEK   MOCLDY    39  30  70 S8        29.76F
KOKOMO *+      MOCLDY    37  28  70 S14G22    29.74S
MARION +       MOCLDY    36  29  74 S16G23    29.76R
MT COMFORT *+  PTCLDY    37  23  56 S13       29.79R
SHELBYVILLE    MOCLDY    39  30  70 S16       29.79F
ZIONSVILLE +   MOCLDY    36  27  69 S8        29.76S

$$

INZ033-034-041-042-049-050-058-059-291400-
EAST CENTRAL INDIANA

CITY           SKY/WX    TMP DP  RH WIND       PRES   REMARKS
MUNCIE         MOCLDY    39  30  70 S16G25    29.76F

$$

INZ060-061-067>069-081>083-085>088-291400-
SOUTHWEST INDIANA

CITY           SKY/WX    TMP DP  RH WIND       PRES   REMARKS
EVANSVILLE     MOCLDY    50  36  58 SW16      29.87R
HUNTINGBURG *+ CLOUDY    48  34  57 S20       29.86S

$$

INZ062-063-066-070>080-084-089>092-291400-
SOUTH CENTRAL AND SOUTHEAST INDIANA

CITY           SKY/WX    TMP DP  RH WIND       PRES   REMARKS
BLOOMINGTON    MOCLDY    47  34  60 SW17G28   29.81R

$$




USA.gov is the U.S. government's official web portal to all federal, state and local government web resources and services.